DELTA 1 DEB, 12178

Orbit data source: Space-Track

DELTA 1 DEB, 12178 is space debris in SSO originally from a launch on Sun, 05 Mar 1978 UTC launched from the Air Force Western Test Range (AFWTR). Debris objects in space refer to the collection of defunct objects orbiting the Earth. Examples of debris include non-operational satellites, rocket bodies, and fragments generated from explosions, collisions, or faulty payload assembly.

Loading next visibility...
Identifier
12178, 1978-026T
Orbit
SSO
Country
Flag of USUS
Related business
Manufacturer
Unknown
Mission
Spacecraft
Bus & Motor
Unknown
Mass
Unknown
Launch date (UTC)
1978-03-05 (48 years ago)
Launch vehicle
Unknown
Launch site
Air Force Western Test Range (AFWTR)
Object type
Payload
Rocket body
Debris
Shape & HBR
Unknown shape, 0.1 m
Radar Cross Section
Medium (>0.1 m² and <1 m²)

Expand to show TLE details & history
Last TLE update: 3 days ago

TLE from 3 days ago
0 DELTA 1 DEB
1 12178U 78026T   26170.65134678  .00000230  00000-0  20267-3 0  9993
2 12178  99.3771  44.7134 0061723 155.1715 268.0448 13.94788792305439
Epoch: 2026-06-19T15:37Z
TLE epoch observation values (Epoch: 2026-06-19T15:37:56.361Z)
Latitude
61.16725°
Longitude
-115.01084°
Altitude
924.097 km
Speed
7.395 km/s
True Right ascension
01h 49m 24s
True Declination
61° 01' 30"
Sunlit
Object was in daylight at epoch
Visualization orbit readout
Latitude
Unknown
Longitude
Unknown
Altitude
Unknown
Speed
Unknown
Apparent Right ascension
Unknown
Apparent Declination
Unknown
Sunlit
N/A
Visualization observer readout
Local Sidereal Time
08:10:20
Azimuth
Unknown
Elevation
Unknown
Doppler factor
Unknown
Orbital elements
Apogee altitude
954.101 km
Perigee altitude
864.143 km
Semi-major axis
7,287.259 km
Eccentricity
0.00617
Inclination
99.3771°
RAAN
44.7134°
Arg. of periapsis
155.1715°
True anomaly
267.33812°
Mean anomaly
268.0448°
Eccentric anomaly
267.69144°
Mean motion
3.48897 °/min
Orbital period
103.18 mins
BSTAR
0.00020267
Loading maneuver chart data...
Computing Atmospheric mass density...

Documentation

Showing up to 5 results
|